Theta_e
313 313 314 314 314 314 314 313 315 313 312 307 307 307 304 304 306 306 306 301 301 301 300 300 300 300 300 300 299 298 299 298 296 295 295 294 294 294 293 293 292 292 291 289
313 311 312 313 313 315 314 314 314 313 312 308 309 305 308 307 307 303 301 301 301 301 302 303 302 301 300 299 298 299 298 296 296 295 294 294 293 293 293 293 292 292 290 290
314 312 310 313 312 313 312 312 314 313 313 311 307 306 304 303 302 302 301 301 302 302 301 300 298 299 299 299 298 298 297 295 294 294 294 294 293 293 293 292 292 292 291 291
313 310 309 309 308 311 312 312 311 311 307 307 305 304 303 303 303 301 302 301 300 298 297 297 297 298 298 298 297 296 295 294 294 293 293 293 293 292 292 292 291 291 291 291
314 312 307 310 311 312 312 313 312 310 307 305 305 304 303 302 301 300 300 298 297 296 295 295 296 296 296 296 296 294 294 294 293 293 293 292 291 290 291 291 292 290 291 291
310 312 312 309 308 310 311 314 311 311 311 306 306 306 304 300 300 298 297 296 295 295 294 295 295 295 295 295 295 294 293 292 292 292 291 291 290 289 289 290 291 291 291 292
310 313 311 308 309 310 313 312 307 307 308 306 307 304 301 300 298 296 296 295 294 294 294 294 294 294 294 293 293 293 292 292 292 291 291 290 290 290 289 290 291 291 291 291
310 311 311 309 311 312 310 307 306 306 306 305 303 301 299 297 296 294 294 293 293 293 293 292 293 294 293 293 292 292 292 292 292 292 291 291 290 289 289 289 290 290 291 292
310 312 309 309 310 308 307 307 306 306 305 303 300 298 296 294 293 292 292 292 292 292 292 292 292 293 293 293 293 293 292 292 291 291 291 290 290 290 289 289 289 289 289 289
312 309 308 308 307 307 307 307 305 304 302 300 299 296 295 294 293 292 292 292 291 291 291 291 291 291 292 292 293 293 292 291 292 292 292 290 289 290 289 288 288 288 288 288
308 308 307 306 307 306 304 302 301 300 299 298 296 295 295 294 292 291 292 292 291 291 290 290 290 291 292 292 292 291 291 290 290 290 289 289 289 288 289 288 288 288 288 289
312 309 309 306 305 303 302 300 298 297 297 296 295 295 294 293 291 292 291 291 290 291 290 290 290 290 291 290 290 291 291 291 290 290 290 290 290 289 289 289 290 290 290 290
309 308 308 305 303 302 299 298 297 295 295 295 295 295 293 292 292 292 292 291 291 291 290 290 290 290 291 291 291 291 292 291 291 291 291 291 290 290 290 290 289 289 289 289
309 308 303 303 302 300 297 297 295 295 294 294 294 293 293 292 292 292 292 292 292 292 291 291 291 292 292 292 292 292 292 292 291 291 291 291 290 290 290 290 290 290 289 289
307 308 307 304 302 299 296 295 295 295 295 293 293 293 293 292 293 293 292 292 292 292 292 292 292 292 292 292 292 292 292 292 291 291 291 291 290 290 290 290 289 289 290 289
307 308 305 301 300 297 296 296 296 296 295 293 293 293 293 293 293 293 293 292 292 292 292 292 292 292 292 292 292 292 292 292 292 292 292 291 291 291 290 290 289 289 289 288
306 303 303 301 298 296 296 296 296 295 294 294 293 293 293 293 293 293 293 293 293 293 292 292 292 292 293 293 293 293 293 293 293 292 292 292 291 291 291 290 290 289 288 288
307 303 300 298 297 296 296 296 296 295 294 294 294 294 293 293 293 293 293 293 293 293 294 294 294 293 294 294 293 293 293 293 293 292 292 292 291 291 291 290 290 290 290 289
307 303 299 297 297 296 296 296 295 295 294 294 294 294 294 294 294 294 294 294 295 295 295 295 295 294 294 294 294 293 293 293 292 292 292 292 292 292 291 291 290 290 290 290
307 301 299 297 296 296 296 296 296 295 295 295 295 295 295 295 295 295 295 295 295 295 295 295 295 294 294 294 293 293 293 293 293 292 292 292 292 292 291 291 291 291 290 289
306 301 299 297 296 296 296 297 296 296 295 295 295 295 296 296 296 296 296 296 296 296 295 295 295 294 294 294 294 293 293 293 293 293 292 292 292 292 292 291 291 291 290 290
307 301 299 297 296 296 296 296 296 296 296 296 296 296 297 297 297 297 297 297 296 296 295 295 295 294 294 294 294 293 293 293 293 293 293 292 292 292 292 292 291 291 290 290
306 301 298 297 297 297 296 296 296 296 296 297 297 297 297 297 298 297 297 296 296 296 295 295 295 295 294 294 294 293 293 293 293 293 293 292 292 292 292 291 291 291 290 290
305 301 298 297 297 297 297 297 296 296 296 296 296 297 297 298 297 297 296 296 296 296 295 295 295 295 294 294 294 294 293 293 293 293 293 293 293 292 292 292 291 291 290 290
305 301 299 297 297 297 297 297 297 297 296 296 297 297 297 297 297 297 296 296 296 296 295 295 295 295 295 294 294 294 294 293 293 293 293 293 293 293 292 292 291 291 290 290
307 301 299 298 298 298 298 297 297 297 297 297 297 297 297 297 297 297 296 296 296 296 296 295 295 295 295 294 294 294 294 294 294 293 293 293 293 293 292 292 291 291 291 290
307 304 300 299 297 297 298 298 298 298 298 298 298 297 297 297 297 297 296 296 296 296 296 295 295 295 295 294 294 294 294 294 294 293 293 293 293 293 293 292 292 292 291 290
Wind_Speed
7 6 4 3 3 4 3 3 1 3 4 5 7 7 9 7 1 3 6 6 4 5 6 7 8 10 11 10 10 14 21 21 19 17 18 15 18 19 22 24 25 25 25 23
3 4 1 2 3 8 9 7 7 6 4 8 4 8 6 5 6 8 8 8 8 9 11 16 15 12 11 10 13 18 21 20 17 17 19 17 18 20 23 24 25 24 23 21
4 1 1 1 0 2 3 3 1 1 2 9 7 9 10 9 11 11 10 9 11 13 14 16 13 12 13 13 14 16 18 19 21 19 20 18 17 20 23 22 24 21 20 19
2 1 2 0 3 3 8 3 2 5 7 6 10 12 10 10 10 9 9 10 11 11 13 15 12 11 11 12 14 16 17 20 21 18 19 19 20 22 21 15 22 19 19 18
2 2 2 1 3 4 1 2 3 8 12 11 12 12 11 9 9 8 9 8 8 8 11 13 13 13 13 12 13 17 20 23 19 20 19 20 22 22 14 19 16 16 17 17
2 1 1 1 3 4 6 2 4 1 2 14 10 2 3 5 8 6 7 6 7 8 11 13 14 14 16 12 14 18 21 21 19 19 21 24 26 23 21 17 17 16 16 14
2 1 1 3 6 3 1 2 3 5 8 11 5 6 9 5 7 7 7 7 7 8 10 13 14 16 16 15 14 17 15 15 18 19 20 22 23 25 25 22 20 19 18 17
2 2 2 2 1 1 5 6 9 14 14 18 15 11 9 8 7 7 7 8 8 9 9 11 13 16 18 21 19 18 16 15 17 18 19 20 22 24 27 29 27 24 22 21
1 3 4 4 9 12 12 14 10 13 12 13 14 12 9 8 8 8 8 8 9 9 11 12 12 13 16 16 18 19 18 18 18 17 18 20 21 23 26 29 30 30 30 28
4 6 8 12 17 17 12 15 13 12 12 12 14 10 10 9 9 9 9 9 10 10 11 12 14 13 11 13 15 16 16 18 18 19 18 18 20 21 23 26 28 28 29 29
5 8 13 12 15 14 17 15 16 16 14 13 11 11 10 10 11 10 10 9 9 11 9 12 13 14 15 15 16 16 18 19 19 19 20 20 18 18 19 18 21 23 23 24
5 19 6 11 14 14 17 16 14 15 15 12 10 11 9 11 11 10 10 11 10 11 10 11 13 14 15 16 17 17 18 20 20 21 21 21 22 19 16 16 16 17 17 19
11 16 19 22 17 15 17 16 15 16 13 13 11 10 10 11 10 10 11 12 11 10 10 12 14 15 16 17 17 18 18 20 22 23 23 24 25 26 27 24 22 22 22 21
24 30 20 20 17 16 16 17 16 15 14 12 11 10 10 11 11 10 11 13 11 11 12 13 14 16 17 18 19 20 20 22 23 24 25 25 26 26 27 28 29 29 28 27
29 19 23 22 22 18 16 17 17 15 13 12 11 11 10 11 12 13 12 10 11 14 15 16 17 19 20 21 22 23 24 24 24 25 26 27 26 27 27 28 29 30 29 28
22 26 24 24 23 20 18 17 17 15 12 13 13 12 11 12 12 12 12 12 14 16 17 19 21 21 23 23 24 24 25 26 27 27 28 28 29 28 28 28 28 29 31 32
37 27 28 26 24 21 18 16 15 15 14 13 14 13 12 12 12 13 14 16 17 17 19 20 21 21 23 24 24 25 25 26 27 27 28 28 28 28 28 28 28 28 28 31
27 28 26 26 26 23 20 18 16 15 15 15 15 14 13 12 12 14 16 17 17 17 18 19 20 20 21 21 22 22 23 24 25 26 26 27 27 28 29 29 29 29 30 31
27 27 27 25 23 22 22 20 18 18 17 16 16 15 14 14 14 15 15 15 15 14 14 15 16 17 18 18 19 20 21 22 23 24 25 26 28 29 29 30 30 30 31 31
30 26 26 25 22 21 22 21 19 19 18 18 17 16 16 15 14 14 13 12 11 10 10 11 12 13 14 16 17 18 20 21 22 23 25 26 27 28 30 30 31 31 31 31
32 30 28 26 24 22 21 21 21 20 19 18 15 15 15 13 12 11 10 9 7 6 7 8 10 11 13 14 15 17 18 20 22 24 25 26 28 29 30 31 32 32 32 32
34 33 31 28 26 24 23 22 21 20 19 18 17 15 13 12 11 9 7 5 4 3 5 7 9 10 12 13 15 16 18 20 21 23 25 27 28 29 30 31 32 33 34 34
37 35 33 31 29 25 24 23 21 19 19 18 16 15 13 12 9 7 5 2 1 2 4 6 8 10 12 13 15 17 19 20 23 25 26 28 30 32 33 34 35 35 36 36
38 36 34 31 29 28 27 26 23 21 19 17 16 15 13 11 8 6 5 3 2 3 5 7 9 11 13 14 16 18 20 23 25 27 29 30 32 33 34 36 36 36 36 36
38 37 36 35 33 30 27 26 24 23 22 20 19 17 15 13 11 9 8 6 6 7 8 9 11 13 15 17 19 21 23 25 27 30 32 34 34 35 36 37 37 37 37 36
41 39 38 36 34 31 29 28 26 25 24 23 22 20 18 15 13 11 10 9 9 10 10 12 14 15 17 19 21 23 25 27 30 32 34 35 37 37 38 38 37 37 36 36
41 39 38 36 35 32 29 29 28 26 24 23 21 20 18 16 15 14 13 12 12 12 13 15 16 18 20 22 24 25 27 29 30 32 34 36 37 37 37 37 37 37 36 36
Wind_Direction
75 73 78 66 358 188 220 145 61 126 107 112 116 114 104 102 88 262 3 350 7 35 26 13 350 335 316 301 307 320 327 338 338 337 330 327 324 331 340 339 341 339 342 342
86 57 130 105 105 95 85 105 110 126 153 180 134 121 92 26 5 51 55 47 34 24 9 348 333 335 320 306 313 325 337 341 340 332 334 323 325 330 330 332 336 343 350 350
169 214 211 183 162 105 112 62 121 262 59 158 120 62 34 49 68 73 64 43 22 1 357 341 346 353 349 335 326 330 342 347 348 339 337 335 328 328 330 333 333 343 350 354
127 204 223 55 297 271 117 94 77 71 84 98 113 99 79 74 81 71 42 5 1 4 360 8 13 11 353 340 338 344 351 357 1 354 349 350 340 332 336 330 338 346 352 1
160 187 276 99 168 182 31 58 24 108 111 140 136 124 75 64 58 39 20 16 20 24 16 14 15 2 350 349 350 353 355 355 2 5 359 358 2 4 1 338 351 353 0 2
172 168 97 284 298 184 96 82 27 84 131 167 171 270 82 59 23 42 28 37 24 30 24 23 17 10 6 356 353 350 350 354 3 3 8 15 13 6 7 7 6 4 11 11
149 132 94 262 273 182 291 73 355 101 101 130 101 84 122 88 51 51 41 34 33 32 29 23 20 22 10 11 1 345 340 358 2 8 11 13 12 19 19 18 17 15 13 14
138 109 101 0 292 44 115 98 94 85 94 100 110 109 97 84 66 44 39 34 32 32 28 20 21 22 20 24 19 23 24 16 13 14 15 14 17 19 22 24 25 20 15 12
334 84 21 38 103 117 123 111 106 100 108 111 111 104 99 80 59 41 32 29 34 32 32 26 19 18 24 16 9 10 17 20 21 20 24 17 19 20 21 23 23 21 18 14
137 46 83 95 106 110 95 105 109 104 114 113 112 108 93 72 56 43 39 41 34 35 33 29 25 21 12 1 3 8 17 21 24 24 26 23 22 23 23 20 18 17 16 15
87 120 104 91 110 112 107 106 108 106 105 107 108 100 82 67 53 46 44 43 38 34 34 29 24 24 19 16 18 23 26 27 28 26 26 30 31 23 21 21 18 14 13 14
168 178 119 141 129 121 113 113 111 111 109 102 96 96 78 67 57 54 48 47 38 38 38 33 30 28 27 30 29 30 31 30 29 30 31 31 33 37 32 26 21 20 15 11
130 151 140 135 130 128 120 118 112 108 102 105 100 89 74 67 64 59 53 44 42 40 42 42 37 35 35 34 36 37 36 37 36 37 34 34 35 33 33 44 41 34 30 25
144 137 122 138 138 135 127 122 120 110 100 94 98 96 83 71 68 68 59 47 48 54 53 50 46 44 43 44 45 45 44 43 41 38 36 36 34 33 33 32 31 32 34 32
145 151 143 141 139 140 133 131 124 115 104 102 104 94 86 77 72 68 61 54 60 63 59 58 57 55 55 52 49 47 46 44 42 40 39 37 34 33 31 29 28 26 25 27
149 146 147 146 146 144 141 141 130 124 117 107 107 102 95 88 82 79 73 72 75 71 67 64 63 64 61 56 53 51 49 46 44 41 38 35 32 29 27 25 23 22 21 19
148 149 157 155 153 151 147 140 135 131 125 119 115 108 100 95 92 87 82 80 78 76 73 71 70 66 62 57 53 49 45 41 38 35 31 28 26 22 20 19 18 17 14 14
165 159 161 153 151 152 151 145 141 137 132 127 121 116 111 106 101 94 89 86 82 78 76 73 70 65 59 53 47 42 38 35 31 29 26 23 20 18 16 13 11 9 10 11
170 164 164 160 157 152 148 146 145 141 137 133 131 128 119 111 105 99 94 88 85 82 77 71 65 59 53 46 40 35 32 29 26 23 20 18 17 14 12 8 6 5 4 3
167 168 166 165 163 160 154 152 148 147 144 140 137 130 124 118 112 105 99 94 88 81 69 60 54 50 44 39 34 29 26 22 20 17 16 14 11 10 8 5 2 360 359 359
170 170 171 171 169 167 163 158 157 155 151 147 144 136 132 128 123 117 110 101 87 69 53 45 40 38 35 29 24 20 17 14 12 10 8 6 5 4 2 359 358 357 356 355
175 174 175 176 175 172 172 167 165 164 161 157 155 150 146 142 139 131 121 109 83 45 30 29 27 21 19 15 12 9 7 5 3 1 360 358 357 356 355 354 353 352 351 351
180 179 179 181 180 178 177 176 175 173 170 167 164 160 159 159 156 151 149 142 101 354 352 6 5 2 1 1 358 357 356 355 354 353 351 350 349 349 349 349 348 347 348 348
182 183 183 183 184 185 186 186 184 181 178 177 175 176 178 175 178 184 195 215 262 304 324 334 341 344 345 346 347 347 347 347 346 346 345 345 345 343 344 344 344 343 344 344
187 187 189 188 189 192 192 191 191 193 193 190 190 190 192 198 201 209 219 237 263 287 304 315 325 330 334 337 339 340 341 341 342 341 340 341 341 340 340 342 341 341 342 343
190 193 195 196 195 195 196 196 197 198 199 201 201 202 205 209 214 222 235 249 267 284 299 309 318 325 329 331 334 335 336 338 337 338 338 337 338 338 340 340 339 340 340 341
195 198 198 200 202 201 202 203 202 204 206 209 212 213 215 218 223 233 246 259 273 285 296 306 315 322 325 328 331 332 334 336 336 335 334 334 337 339 340 339 341 340 340 340